Tracking 29487 objects as of 11-Sep-2024
HD Live streaming from Space Station
objects crossing your sky now

SL-3 R/B

Track SL-3 R/B now!
10-day predictions


NORAD ID: 13121
Int'l Code: 1982-027B
Perigee: 510.4 km
Apogee: 523.6 km
Inclination: 81.2 °
Period: 94.8 minutes
Semi major axis: 6887 km
RCS: 5.6899 m2 (large)
Launch date: March 31, 1982
Source: Commonwealth of Independent States (former USSR) (CIS)
Launch site: PLESETSK MISSILE AND SPACE COMPLEX (PKMTR)

Note: This is a ROCKET BODY
Your satellite tracking list
Your tracking list is empty




NASA's NSSDC Master Catalog

Two Line Element Set (TLE):
1 13121U 82027B   24254.90708083  .00012019  00000-0  57775-3 0  9996
2 13121  81.1931 317.1818 0009608 318.0836  41.9658 15.18673575315587
Source of the keplerian elements: AFSPC